{"data":{"norad_id":66761,"intl_designator":"2025-276CZ","name":"TRANSPORTER-15 OBJECT CZ","alt_names":[],"object_type":"PAYLOAD","status":"ACTIVE","operator":null,"country":"TBD","launch_date":"2025-11-28","launch_site_code":"AFWTR","launch_vehicle":null,"mission":null,"orbit_class":"UNKNOWN","rcs_meters":null,"size_class":null,"mass_kg":null,"dimensions":null,"purposes":[],"wikipedia_slug":null,"has_3d_model":false,"image_url":null,"decayed_at":null,"tle_current":{"epoch":"2026-05-25T03:58:09.739200Z","epoch_age_seconds":71340,"freshness":"FRESH","line1":"1 66761U 25276CZ  26145.16539050  .00009146  00000+0  40508-3 0  9994","line2":"2 66761  97.4189 219.5042 0001612  75.7533 284.3882 15.21859245 26958","mean_motion":15.21859245,"eccentricity":0.0001612,"inclination_deg":97.4189,"raan_deg":219.5042,"arg_perigee_deg":75.7533,"mean_anomaly_deg":284.3882,"bstar":0.00040508,"rev_number":2695,"period_min":94.621102755137,"perigee_km":499.12393948296,"apogee_km":501.34152588478,"semimajor_km":6878.3697326839,"source":"CELESTRAK","updated_at":"2026-05-25T13:38:06.454689Z"}}}